Location: Ostrava
(49.8330°N, 18.2830°E)
Time: 07:51:42
(UTC+02:00)

Lacrosse 5 - Visible Passes

Search period start: 17 August 2017 00:00
Search period end: 27 August 2017 00:00
Orbit: 717 x 721 km, 57.0° (Epoch: 16 August)

Date Brightness Start Highest point End Pass type
(mag) Time Alt. Az. Time Alt. Az. Time Alt. Az.
17 Aug 2.6 00:44:40 19° W 00:48:07 51° NNW 00:53:05 10° NE visible
17 Aug 3.3 02:27:12 10° WNW 02:31:55 37° N 02:36:38 10° ENE visible
17 Aug 2.5 04:10:36 10° NW 04:15:38 59° NNE 04:20:39 10° ESE visible
17 Aug 2.4 22:11:23 34° SSE 22:12:00 35° SE 22:16:36 10° ENE visible
17 Aug 2.1 23:50:01 12° WSW 23:54:46 67° NNW 23:59:51 10° NE visible
18 Aug 3.3 01:33:40 10° WNW 01:38:24 37° N 01:43:08 10° ENE visible
18 Aug 2.9 03:17:20 10° WNW 03:22:14 46° NNE 03:27:07 10° E visible
18 Aug 1.9 05:00:25 10° WNW 05:05:28 69° SW 05:10:31 10° SE visible
18 Aug 3.0 21:15:20 10° S 21:19:07 21° SE 21:22:54 10° ENE visible
18 Aug 1.7 22:56:26 10° SW 23:01:31 86° SE 23:06:37 10° ENE visible
19 Aug 3.0 00:40:05 10° W 00:44:54 42° NNW 00:49:44 10° ENE visible
19 Aug 3.2 02:23:59 10° WNW 02:28:46 39° N 02:33:32 10° E visible
19 Aug 2.0 04:07:10 10° NW 04:12:17 81° NNE 04:17:22 10° ESE visible
19 Aug 1.9 22:03:25 10° SW 22:08:22 56° SE 22:13:21 10° ENE visible
19 Aug 2.6 23:46:31 10° W 23:51:28 51° NNW 23:56:26 10° NE visible
20 Aug 3.3 01:30:33 10° WNW 01:35:15 37° N 01:39:58 10° ENE visible
20 Aug 2.4 03:13:57 10° NW 03:18:58 58° NNE 03:23:59 10° ESE visible
20 Aug 2.2 04:57:05 10° WNW 05:01:54 44° SW 05:06:41 10° SSE visible
20 Aug 2.4 21:10:48 10° SSW 21:15:21 35° SE 21:19:57 10° ENE visible
20 Aug 2.1 22:53:03 10° WSW 22:58:07 68° NNW 23:03:12 10° NE visible
21 Aug 3.3 00:37:00 10° WNW 00:41:45 37° N 00:46:28 10° ENE visible
21 Aug 2.9 02:20:41 10° WNW 02:25:35 46° NNE 02:30:28 10° E visible
21 Aug 1.8 04:03:46 10° WNW 04:08:49 70° SW 04:13:51 10° SE visible
21 Aug 1.8 21:59:46 10° SW 22:04:52 85° SE 22:09:58 10° ENE visible
21 Aug 3.1 23:43:25 10° W 23:48:15 42° NNW 23:53:05 10° ENE visible
22 Aug 3.2 01:27:20 10° WNW 01:32:07 39° N 01:36:53 10° E visible
22 Aug 1.9 03:10:31 10° NW 03:15:37 80° NNE 03:20:43 10° ESE visible
22 Aug 2.7 04:53:57 10° WNW 04:58:12 27° SW 05:02:26 10° S visible
22 Aug 1.9 21:06:46 10° SW 21:11:44 55° SE 21:16:42 10° ENE visible
22 Aug 2.7 22:49:51 10° W 22:54:49 51° NNW 22:59:47 10° NE visible
23 Aug 3.3 00:33:53 10° WNW 00:38:36 37° N 00:43:18 10° ENE visible
23 Aug 2.4 02:17:17 10° NW 02:22:19 58° NNE 02:27:20 10° ESE visible
23 Aug 2.1 04:00:26 10° WNW 04:05:15 44° SW 04:10:03 10° SSE visible
23 Aug 2.5 20:14:09 10° SSW 20:18:43 34° SE 20:23:17 10° ENE visible
23 Aug 2.2 21:56:23 10° WSW 22:01:27 68° NNW 22:06:33 10° NE visible
23 Aug 3.3 23:40:21 10° WNW 23:45:05 37° N 23:49:49 10° ENE visible
24 Aug 2.9 01:24:01 10° WNW 01:28:55 45° NNE 01:33:48 10° E visible
24 Aug 1.7 03:07:06 10° WNW 03:12:10 70° SW 03:17:13 10° SE visible
24 Aug 3.3 04:51:17 10° W 04:54:22 16° WSW 04:57:29 10° SSW visible
24 Aug 1.8 21:03:07 10° SW 21:08:12 84° SE 21:13:19 10° ENE visible
24 Aug 3.1 22:46:45 10° W 22:51:35 42° NNW 22:56:25 10° ENE visible
25 Aug 3.1 00:30:41 10° WNW 00:35:27 39° N 00:40:13 10° E visible
25 Aug 1.9 02:13:52 10° NW 02:18:58 80° NNE 02:24:03 10° ESE visible
25 Aug 3.0 03:57:17 10° WNW 04:03:08 23° SSW 04:05:48 10° S visible
25 Aug 2.0 20:10:08 10° SW 20:15:04 55° SE 20:20:02 10° ENE visible
25 Aug 2.7 21:53:11 10° W 21:58:09 51° NNW 22:03:08 10° NE visible
25 Aug 3.3 23:37:14 10° WNW 23:41:56 36° N 23:46:39 10° ENE visible
26 Aug 2.3 01:20:38 10° NW 01:25:40 58° NNE 01:25:43 58° NNE visible
26 Aug 3.8 03:03:46 10° WNW 03:04:47 16° WNW 03:04:47 16° WNW visible
26 Aug 2.2 20:59:44 10° WSW 21:04:48 69° NNW 21:09:53 10° NE visible
26 Aug 3.2 22:43:41 10° WNW 22:48:25 37° N 22:53:10 10° ENE visible
